Skip Page Navigation
NASA JPL Caltech
NASA Logo - Jet Propulsion Laboratory + View the NASA Portal
+ Center for Near-Earth Object Studies
JPL Home Earth Solar System Stars & Galaxies Technology
JPL Solar System Dynamics
BODIES ORBITS EPHEMERIDES TOOLS PHYSICAL DATA DISCOVERY FAQ SITE MAP
JPL Small-Body Database Browser
Search: [ help ]  
278513 Schwope (2008 CE120)
Classification: Main-belt Asteroid          SPK-ID: 2278513
Ephemeris | Orbit Diagram | Orbital Elements | Mission Design | Physical Parameters | Discovery Circumstances | Close-Approach Data ]

[ show orbit diagram ]
Orbital Elements at Epoch 2459200.5 (2020-Dec-17.0) TDB
Reference: JPL 14 (heliocentric ecliptic J2000)
 Element Value Uncertainty (1-sigma)   Units 
e .2098998303091071 7.0262e-08  
a 2.389618505906272 1.7472e-08 au
q 1.888037987013043 1.6675e-07 au
i 9.346936510593206 4.5588e-06 deg
node 149.6256470661077 3.7212e-05 deg
peri 241.7398757881311 3.9063e-05 deg
M 255.7813092149079 1.6438e-05 deg
tp 2459591.101942412961
(2022-Jan-11.60194241)
6.4694e-05 TDB
period 1349.246456747665
3.69
1.4797e-05
4.051e-08
d
yr
n .2668155978469447 2.9262e-09 deg/d
Q 2.8911990247995 2.1139e-08 au
  Orbit Determination Parameters
   # obs. used (total)      367  
   data-arc span      9116 days (24.96 yr)  
   first obs. used      1995-07-03  
   last obs. used      2020-06-17  
   planetary ephem.      DE441  
   SB-pert. ephem.      SB441-N16  
   condition code      0  
   norm. resid. RMS      .52337  
   source      ORB  
   producer      Otto Matic  
   solution date      2021-Apr-14 04:05:13  

Additional Information
 Earth MOID = .911705 au 
 Jupiter MOID = 2.60305 au 
 T_jup = 3.485 
[ show covariance matrix ]

Ephemeris | Orbit Diagram | Orbital Elements | Mission Design | Physical Parameters | Discovery Circumstances | Close-Approach Data ]

Physical Parameter Table
Parameter Symbol Value Units Sigma Reference Notes
absolute magnitude H 17.05   n/a MPCxxxxx  
diameter diameter 2.447 km 0.111 urn:nasa:pds:neowise_diameters_albedos::2.0[mainbelt] (http://adsabs.harvard.edu/abs/2011ApJ...741...68M)  
geometric albedo albedo 0.047   0.005 urn:nasa:pds:neowise_diameters_albedos::2.0[mainbelt] (http://adsabs.harvard.edu/abs/2011ApJ...741...68M)  

278513 Schwope           Discovered 2008 Feb. 14 by B. Thinius at the Inastars Observatory, Potsdam.
Axel Schwope (b. 1959) is a German astronomer at the Leibniz Institute for Astrophysics in Potsdam. His research focuses on compact X-ray emitting objects. The name acknowledges the interaction between a professional and an amateur astronomer.
NOTE: some special characters may not display properly (any characters within {} are an attempt to place the proper accent above a character)
Reference: 20120831/MPCPages.arcLast Updated: 2012-09-04

[ show close-approach data ]
Ephemeris | Orbit Diagram | Orbital Elements | Mission Design | Physical Parameters | Discovery Circumstances | Close-Approach Data ]
ABOUT SSD CREDITS/AWARDS PRIVACY/COPYRIGHT GLOSSARY LINKS
FirstGov 2021-May-09 09:08 UT
(server date/time)  
NASA Home Page
Site Manager:   Ryan S. Park
Webmaster  Alan B. Chamberlin